User: anonymous   Login
Location: Launay
(47.2429°N, 1.5727°E)
Time: 18:05:29
(UTC+00:00)
Language:

Cosmos 1470 - Orbit

View from above orbital plane
View from above orbital plane
View from above satellite
View from above satellite

Ground track
Ground track

The orbit data is extracted from the following two-line orbital elements,

1 14147U 83061A   25196.91164187  .00007912  00000-0  22772-3 0  9997
2 14147  82.4727   0.5830 0010169 128.2204 231.9956 15.35546125 51302
Epoch (UTC): 15 July 2025 21:52:45
Eccentricity: 0.0010169
inclination: 82.4727°
perigee height: 452 km
apogee height: 466 km
right ascension of ascending node: 0.5830°
argument of perigee: 128.2204°
revolutions per day: 15.35546125
mean anomaly at epoch: 231.9956°
orbit number at epoch: 5130

The dashed part of the orbit path shows where the satellite is in the earth's shadow,  

DLR